| time (UTC) | temp F | wind direction | speed MPH | gust MPH | rain 1hr in | rain 24hr in | rain mn in | humidity % | barometer mb |
| 20260505173045 | 55 | 5 | 5.0 | 12.0 | 0.00 | 0.01 | 0.00 | 34 | 1008.5 |
| 20260505172538 | 55 | 315 | 5.0 | 12.0 | 0.00 | 0.01 | 0.00 | 35 | 1008.5 |
| 20260505172038 | 55 | 286 | 4.0 | 12.0 | 0.00 | 0.01 | 0.00 | 34 | 1008.4 |
| 20260505171548 | 55 | 309 | 4.0 | 12.0 | 0.00 | 0.01 | 0.00 | 32 | 1008.4 |
| 20260505171039 | 55 | 16 | 6.0 | 13.0 | 0.00 | 0.01 | 0.00 | 35 | 1008.5 |
| 20260505170537 | 55 | 326 | 5.0 | 13.0 | 0.00 | 0.01 | 0.00 | 35 | 1008.7 |
| 20260505170052 | 54 | 10 | 5.0 | 13.0 | 0.00 | 0.01 | 0.00 | 32 | 1008.8 |
| 20260505165541 | 54 | 297 | 4.0 | 12.0 | 0.00 | 0.01 | 0.00 | 34 | 1008.8 |
| 20260505165038 | 54 | 322 | 5.0 | 13.0 | 0.00 | 0.01 | 0.00 | 33 | 1008.7 |
| 20260505164547 | 54 | 328 | 6.0 | 13.0 | 0.00 | 0.01 | 0.00 | 32 | 1008.6 |
| 20260505164038 | 54 | 331 | 3.0 | 17.0 | 0.00 | 0.01 | 0.00 | 35 | 1008.4 |
| 20260505163537 | 54 | 310 | 7.0 | 17.0 | 0.00 | 0.01 | 0.00 | 33 | 1008.3 |
| 20260505163048 | 54 | 316 | 3.0 | 11.0 | 0.00 | 0.01 | 0.00 | 35 | 1008.3 |
| 20260505162541 | 54 | 302 | 4.0 | 11.0 | 0.00 | 0.01 | 0.00 | 34 | 1008.4 |
| 20260505162037 | 54 | 325 | 3.0 | 11.0 | 0.00 | 0.01 | 0.00 | 38 | 1008.2 |
| 20260505161545 | 54 | 246 | 5.0 | 13.0 | 0.00 | 0.01 | 0.00 | 38 | 1008.3 |
| 20260505161038 | 54 | 301 | 4.0 | 13.0 | 0.00 | 0.01 | 0.00 | 37 | 1008.6 |
| 20260505160537 | 53 | 259 | 4.0 | 11.0 | 0.00 | 0.01 | 0.00 | 39 | 1008.8 |
| 20260505153053 | 53 | 234 | 7.0 | 13.0 | 0.00 | 0.01 | 0.00 | 35 | 1008.4 |
| 20260505152539 | 53 | 322 | 3.0 | 12.0 | 0.00 | 0.01 | 0.00 | 40 | 1008.3 |
| 20260505152038 | 53 | 304 | 4.0 | 17.0 | 0.00 | 0.01 | 0.00 | 38 | 1008.2 |
| 20260505151549 | 52 | 303 | 5.0 | 17.0 | 0.00 | 0.01 | 0.00 | 38 | 1008.3 |
| 20260505151037 | 52 | 323 | 4.0 | 16.0 | 0.00 | 0.01 | 0.00 | 38 | 1008.2 |
| 20260505150538 | 52 | 311 | 5.0 | 13.0 | 0.00 | 0.01 | 0.00 | 39 | 1008.3 |
| 20260505140540 | 51 | 326 | 3.0 | 15.0 | 0.00 | 0.01 | 0.00 | 45 | 1008.5 |
| 20260505125040 | 48 | 327 | 2.0 | 6.0 | 0.00 | 0.01 | 0.00 | 51 | 1008.6 |
| 20260505124544 | 48 | 0 | 1.0 | 6.0 | 0.00 | 0.01 | 0.00 | 52 | 1008.8 |
| 20260505124040 | 48 | 324 | 1.0 | 6.0 | 0.00 | 0.01 | 0.00 | 53 | 1008.4 |
| 20260505123539 | 47 | 350 | 1.0 | 5.0 | 0.00 | 0.01 | 0.00 | 54 | 1008.4 |
| 20260505123053 | 47 | 0 | 1.0 | 5.0 | 0.00 | 0.01 | 0.00 | 56 | 1008.4 |
| 20260505122542 | 47 | 315 | 0.0 | 6.0 | 0.00 | 0.01 | 0.00 | 57 | 1008.5 |
| 20260505122040 | 46 | 285 | 2.0 | 6.0 | 0.00 | 0.01 | 0.00 | 55 | 1008.9 |
| 20260505121551 | 46 | 276 | 0.0 | 4.0 | 0.00 | 0.01 | 0.00 | 56 | 1008.9 |
| 20260505121040 | 46 | 273 | 0.0 | 4.0 | 0.00 | 0.01 | 0.00 | 57 | 1008.3 |
| 20260505120539 | 46 | 319 | 1.0 | 4.0 | 0.00 | 0.01 | 0.00 | 58 | 1007.9 |
| 20260505120052 | 45 | 318 | 1.0 | 4.0 | 0.00 | 0.01 | 0.00 | 59 | 1008.0 |
| 20260505115539 | 45 | 321 | 0.0 | 4.0 | 0.00 | 0.01 | 0.00 | 60 | 1008.4 |
| 20260505115040 | 45 | 258 | 2.0 | 5.0 | 0.00 | 0.01 | 0.00 | 60 | 1008.6 |
| 20260505114544 | 45 | 253 | 2.0 | 6.0 | 0.00 | 0.01 | 0.00 | 61 | 1008.7 |
| 20260505114040 | 44 | 194 | 3.0 | 6.0 | 0.00 | 0.01 | 0.00 | 62 | 1008.8 |
| 20260505113540 | 44 | 229 | 0.0 | 1.0 | 0.00 | 0.01 | 0.00 | 62 | 1007.9 |
| 20260505113057 | 44 | 0 | 0.0 | 0.0 | 0.00 | 0.01 | 0.00 | 62 | 1007.3 |
| 20260505112540 | 44 | 0 | 0.0 | 0.0 | 0.00 | 0.01 | 0.00 | 61 | 1007.1 |
| 20260505112040 | 44 | 0 | 0.0 | 0.0 | 0.00 | 0.01 | 0.00 | 59 | 1007.0 |
| 20260505111549 | 45 | 0 | 0.0 | 0.0 | 0.00 | 0.01 | 0.00 | 58 | 1006.8 |
| 20260505111043 | 45 | 0 | 0.0 | 0.0 | 0.00 | 0.01 | 0.00 | 58 | 1006.5 |
| 20260505110539 | 45 | 0 | 0.0 | 2.0 | 0.00 | 0.01 | 0.00 | 57 | 1006.7 |
| 20260505102040 | 46 | 5 | 4.0 | 9.0 | 0.00 | 0.01 | 0.00 | 51 | 1007.1 |
| 20260505101554 | 46 | 360 | 4.0 | 9.0 | 0.00 | 0.01 | 0.00 | 51 | 1007.0 |
| 20260505101040 | 47 | 347 | 3.0 | 9.0 | 0.00 | 0.01 | 0.00 | 51 | 1006.9 |
| 20260505100540 | 47 | 328 | 1.0 | 9.0 | 0.00 | 0.01 | 0.00 | 51 | 1006.7 |
| 20260505100052 | 47 | 352 | 4.0 | 9.0 | 0.00 | 0.01 | 0.00 | 50 | 1006.5 |
| 20260505095540 | 47 | 34 | 1.0 | 10.0 | 0.00 | 0.01 | 0.00 | 51 | 1006.3 |
| 20260505095043 | 47 | 20 | 4.0 | 13.0 | 0.00 | 0.01 | 0.00 | 51 | 1006.4 |
| 20260505094552 | 47 | 360 | 4.0 | 13.0 | 0.00 | 0.01 | 0.00 | 51 | 1006.6 |
| 20260505094040 | 47 | 344 | 3.0 | 13.0 | 0.00 | 0.01 | 0.00 | 51 | 1006.5 |
| 20260505093539 | 47 | 56 | 5.0 | 13.0 | 0.00 | 0.01 | 0.00 | 52 | 1006.1 |
| 20260505093052 | 47 | 324 | 4.0 | 12.0 | 0.00 | 0.01 | 0.00 | 54 | 1006.1 |
| 20260505092540 | 47 | 340 | 3.0 | 10.0 | 0.00 | 0.01 | 0.00 | 54 | 1006.0 |
| 20260505092044 | 47 | 36 | 3.0 | 10.0 | 0.00 | 0.01 | 0.00 | 55 | 1006.0 |
| 20260505091547 | 47 | 352 | 1.0 | 9.0 | 0.00 | 0.01 | 0.00 | 55 | 1006.1 |
| 20260505091040 | 47 | 22 | 1.0 | 9.0 | 0.00 | 0.01 | 0.00 | 55 | 1006.0 |
| 20260505090540 | 47 | 344 | 3.0 | 9.0 | 0.00 | 0.01 | 0.00 | 54 | 1006.3 |
| 20260505090053 | 47 | 9 | 2.0 | 7.0 | 0.00 | 0.01 | 0.00 | 54 | 1006.6 |
| 20260505085544 | 48 | 360 | 2.0 | 6.0 | 0.00 | 0.01 | 0.00 | 54 | 1006.7 |
| 20260505085042 | 48 | 313 | 2.0 | 7.0 | 0.00 | 0.01 | 0.00 | 54 | 1006.5 |
| 20260505084547 | 48 | 14 | 2.0 | 8.0 | 0.00 | 0.01 | 0.00 | 54 | 1006.2 |
| 20260505084039 | 48 | 352 | 2.0 | 10.0 | 0.00 | 0.01 | 0.00 | 53 | 1006.0 |
| 20260505083544 | 48 | 11 | 4.0 | 10.0 | 0.00 | 0.01 | 0.00 | 53 | 1005.8 |
| 20260505083102 | 48 | 340 | 3.0 | 11.0 | 0.00 | 0.01 | 0.00 | 53 | 1005.6 |
| 20260505082540 | 48 | 352 | 3.0 | 11.0 | 0.00 | 0.01 | 0.00 | 52 | 1005.4 |
| 20260505082040 | 48 | 349 | 3.0 | 12.0 | 0.00 | 0.01 | 0.00 | 52 | 1005.4 |
| 20260505081551 | 48 | 61 | 5.0 | 12.0 | 0.00 | 0.01 | 0.00 | 52 | 1005.1 |
| 20260505081039 | 49 | 329 | 4.0 | 12.0 | 0.00 | 0.01 | 0.00 | 52 | 1005.0 |
| 20260505080540 | 49 | 9 | 6.0 | 12.0 | 0.00 | 0.01 | 0.00 | 51 | 1004.7 |
| 20260505080045 | 49 | 13 | 4.0 | 11.0 | 0.00 | 0.01 | 0.00 | 51 | 1004.7 |
| 20260505075541 | 49 | 318 | 5.0 | 11.0 | 0.00 | 0.01 | 0.00 | 50 | 1004.9 |
| 20260505075040 | 49 | 328 | 2.0 | 8.0 | 0.00 | 0.01 | 0.00 | 50 | 1004.9 |
| 20260505074550 | 49 | 348 | 3.0 | 8.0 | 0.00 | 0.01 | 0.00 | 49 | 1004.7 |
| 20260505074040 | 49 | 315 | 4.0 | 11.0 | 0.00 | 0.01 | 0.00 | 49 | 1004.5 |
| 20260505073541 | 50 | 360 | 2.0 | 11.0 | 0.00 | 0.01 | 0.00 | 49 | 1004.5 |
| 20260505073053 | 50 | 5 | 5.0 | 14.0 | 0.00 | 0.01 | 0.00 | 48 | 1004.2 |
| 20260505072539 | 50 | 352 | 6.0 | 14.0 | 0.00 | 0.01 | 0.00 | 48 | 1003.9 |
| 20260505072040 | 50 | 21 | 6.0 | 14.0 | 0.00 | 0.01 | 0.00 | 48 | 1003.9 |
| 20260505071545 | 50 | 10 | 6.0 | 14.0 | 0.00 | 0.01 | 0.00 | 48 | 1003.8 |
| 20260505071039 | 50 | 5 | 8.0 | 14.0 | 0.00 | 0.01 | 0.00 | 48 | 1003.6 |
| 20260505070540 | 51 | 5 | 5.0 | 14.0 | 0.00 | 0.01 | 0.00 | 48 | 1003.8 |
| 20260505070059 | 51 | 342 | 7.0 | 14.0 | 0.00 | 0.01 | 0.00 | 49 | 1003.8 |
| 20260505065540 | 51 | 322 | 5.0 | 15.0 | 0.00 | 0.01 | 0.00 | 50 | 1004.0 |
| 20260505065039 | 51 | 25 | 6.0 | 15.0 | 0.00 | 0.01 | 0.00 | 50 | 1004.1 |
| 20260505064556 | 52 | 340 | 6.0 | 15.0 | 0.00 | 0.01 | 0.00 | 50 | 1004.0 |
| 20260505064040 | 52 | 24 | 4.0 | 13.0 | 0.00 | 0.01 | 0.00 | 52 | 1003.6 |
| 20260505063540 | 52 | 24 | 3.0 | 14.0 | 0.00 | 0.01 | 0.00 | 52 | 1003.2 |
| 20260505063047 | 53 | 20 | 7.0 | 14.0 | 0.00 | 0.01 | 0.00 | 51 | 1003.3 |
| 20260505062540 | 53 | 18 | 6.0 | 14.0 | 0.00 | 0.01 | 0.00 | 51 | 1003.5 |
| 20260505062040 | 53 | 339 | 5.0 | 13.0 | 0.00 | 0.01 | 0.00 | 51 | 1003.3 |
| 20260505061612 | 53 | 352 | 3.0 | 7.0 | 0.00 | 0.01 | 0.00 | 51 | 1003.3 |
| 20260505061039 | 53 | 24 | 2.0 | 8.0 | 0.00 | 0.01 | 0.00 | 50 | 1003.1 |
| 20260505060539 | 53 | 352 | 2.0 | 8.0 | 0.00 | 0.01 | 0.00 | 50 | 1002.7 |
| 20260505060056 | 53 | 352 | 2.0 | 7.0 | 0.00 | 0.01 | 0.00 | 50 | 1002.6 |
| 20260505055539 | 54 | 330 | 2.0 | 5.0 | 0.00 | 0.01 | 0.00 | 49 | 1002.7 |
| 20260505055041 | 54 | 305 | 2.0 | 9.0 | 0.00 | 0.01 | 0.00 | 48 | 1002.6 |
| 20260505054554 | 54 | 317 | 2.0 | 9.0 | 0.00 | 0.01 | 0.00 | 48 | 1002.7 |
| 20260505054040 | 54 | 321 | 2.0 | 9.0 | 0.00 | 0.01 | 0.00 | 48 | 1002.8 |
| 20260505053541 | 55 | 325 | 3.0 | 12.0 | 0.00 | 0.01 | 0.00 | 47 | 1002.8 |
| 20260505053050 | 55 | 350 | 3.0 | 12.0 | 0.00 | 0.01 | 0.00 | 47 | 1002.8 |
| 20260505052540 | 55 | 329 | 4.0 | 11.0 | 0.00 | 0.01 | 0.00 | 46 | 1002.6 |
| 20260505052040 | 55 | 293 | 4.0 | 10.0 | 0.00 | 0.01 | 0.00 | 45 | 1002.4 |
| 20260505051549 | 55 | 296 | 2.0 | 8.0 | 0.00 | 0.01 | 0.00 | 45 | 1002.6 |
| 20260505051041 | 56 | 314 | 2.0 | 7.0 | 0.00 | 0.01 | 0.00 | 45 | 1002.7 |
| 20260505050540 | 56 | 296 | 2.0 | 7.0 | 0.00 | 0.01 | 0.00 | 45 | 1002.6 |
| 20260505041546 | 58 | 326 | 2.0 | 4.0 | 0.00 | 0.01 | 0.01 | 40 | 1001.5 |
| 20260505041044 | 59 | 309 | 1.0 | 4.0 | 0.00 | 0.01 | 0.01 | 40 | 1001.5 |
| 20260505040537 | 59 | 279 | 1.0 | 4.0 | 0.00 | 0.01 | 0.01 | 40 | 1001.4 |
| 20260505040100 | 59 | 344 | 2.0 | 6.0 | 0.00 | 0.01 | 0.01 | 40 | 1001.3 |
| 20260505035542 | 59 | 0 | 1.0 | 12.0 | 0.00 | 0.01 | 0.01 | 39 | 1001.3 |
| 20260505035040 | 60 | 311 | 2.0 | 12.0 | 0.00 | 0.01 | 0.01 | 38 | 1001.2 |
| 20260505034549 | 60 | 275 | 4.0 | 12.0 | 0.00 | 0.01 | 0.01 | 37 | 1001.3 |
| 20260505034040 | 60 | 305 | 4.0 | 9.0 | 0.00 | 0.01 | 0.01 | 37 | 1001.3 |
| 20260505033540 | 60 | 328 | 3.0 | 7.0 | 0.00 | 0.01 | 0.01 | 38 | 1001.4 |
| 20260505033100 | 60 | 294 | 1.0 | 5.0 | 0.00 | 0.01 | 0.01 | 38 | 1001.5 |
| 20260505032539 | 60 | 327 | 2.0 | 6.0 | 0.00 | 0.01 | 0.01 | 38 | 1001.5 |
| 20260505032040 | 60 | 319 | 1.0 | 6.0 | 0.00 | 0.01 | 0.01 | 38 | 1001.5 |
| 20260505031555 | 61 | 302 | 3.0 | 7.0 | 0.00 | 0.01 | 0.01 | 37 | 1001.4 |
| 20260505031039 | 61 | 298 | 2.0 | 9.0 | 0.00 | 0.01 | 0.01 | 37 | 1001.5 |
| 20260505030539 | 61 | 215 | 3.0 | 9.0 | 0.00 | 0.01 | 0.01 | 37 | 1001.4 |
| 20260505030054 | 61 | 342 | 3.0 | 9.0 | 0.00 | 0.01 | 0.01 | 37 | 1001.3 |
| 20260505025540 | 61 | 279 | 3.0 | 9.0 | 0.00 | 0.01 | 0.01 | 36 | 1001.2 |
| 20260505025038 | 61 | 298 | 4.0 | 12.0 | 0.00 | 0.01 | 0.01 | 35 | 1001.1 |
| 20260505024550 | 62 | 319 | 2.0 | 12.0 | 0.00 | 0.01 | 0.01 | 36 | 1001.0 |
| 20260505024040 | 62 | 325 | 4.0 | 12.0 | 0.00 | 0.01 | 0.01 | 35 | 1000.9 |
| 20260505023543 | 62 | 276 | 3.0 | 10.0 | 0.00 | 0.01 | 0.01 | 36 | 1000.7 |
| 20260505023050 | 62 | 264 | 3.0 | 9.0 | 0.00 | 0.01 | 0.01 | 36 | 1000.4 |
| 20260505022540 | 62 | 304 | 2.0 | 10.0 | 0.00 | 0.01 | 0.01 | 37 | 1000.2 |
| 20260505022042 | 63 | 325 | 2.0 | 10.0 | 0.00 | 0.01 | 0.01 | 37 | 1000.2 |
| 20260505021553 | 63 | 317 | 3.0 | 10.0 | 0.00 | 0.01 | 0.01 | 38 | 1000.2 |
| 20260505021039 | 63 | 318 | 2.0 | 11.0 | 0.00 | 0.01 | 0.01 | 37 | 1000.2 |
| 20260505020539 | 64 | 312 | 4.0 | 11.0 | 0.00 | 0.01 | 0.01 | 37 | 1000.3 |
| 20260505020050 | 64 | 349 | 4.0 | 10.0 | 0.00 | 0.01 | 0.01 | 37 | 1000.2 |
| 20260505015540 | 65 | 327 | 4.0 | 10.0 | 0.00 | 0.01 | 0.01 | 38 | 999.8 |
| 20260505015040 | 65 | 309 | 3.0 | 10.0 | 0.00 | 0.01 | 0.01 | 38 | 999.6 |
| 20260505014545 | 65 | 329 | 3.0 | 11.0 | 0.00 | 0.01 | 0.01 | 37 | 999.3 |
| 20260505014041 | 66 | 296 | 3.0 | 19.0 | 0.00 | 0.01 | 0.01 | 37 | 999.2 |
| 20260505013540 | 66 | 331 | 5.0 | 19.0 | 0.00 | 0.01 | 0.01 | 37 | 999.0 |
| 20260505013051 | 66 | 319 | 4.0 | 10.0 | 0.00 | 0.01 | 0.01 | 37 | 998.8 |
| 20260505012540 | 67 | 315 | 3.0 | 10.0 | 0.00 | 0.01 | 0.01 | 38 | 998.5 |
| 20260505012043 | 67 | 352 | 4.0 | 10.0 | 0.00 | 0.01 | 0.01 | 37 | 998.2 |
| 20260505011550 | 68 | 334 | 4.0 | 10.0 | 0.00 | 0.01 | 0.01 | 36 | 998.0 |
| 20260505011040 | 68 | 285 | 5.0 | 17.0 | 0.00 | 0.01 | 0.01 | 36 | 997.7 |
| 20260505010540 | 69 | 311 | 6.0 | 17.0 | 0.00 | 0.01 | 0.01 | 36 | 997.5 |
| 20260505010106 | 69 | 298 | 5.0 | 13.0 | 0.00 | 0.01 | 0.01 | 36 | 997.4 |
| 20260505005540 | 69 | 15 | 5.0 | 13.0 | 0.00 | 0.01 | 0.01 | 37 | 997.3 |
| 20260505005040 | 70 | 327 | 5.0 | 13.0 | 0.00 | 0.01 | 0.01 | 37 | 997.3 |
| 20260505004550 | 70 | 324 | 5.0 | 13.0 | 0.00 | 0.01 | 0.01 | 37 | 997.2 |
| 20260505004040 | 71 | 321 | 6.0 | 13.0 | 0.00 | 0.01 | 0.01 | 37 | 997.1 |
| 20260505003543 | 72 | 311 | 4.0 | 16.0 | 0.00 | 0.01 | 0.01 | 38 | 997.1 |
| 20260505003053 | 72 | 340 | 8.0 | 16.0 | 0.00 | 0.01 | 0.01 | 38 | 996.9 |
| 20260505002539 | 73 | 317 | 5.0 | 14.0 | 0.00 | 0.01 | 0.01 | 38 | 996.8 |
| 20260505002040 | 74 | 315 | 6.0 | 13.0 | 0.00 | 0.01 | 0.01 | 39 | 996.5 |
| 20260505001557 | 74 | 257 | 3.0 | 11.0 | 0.00 | 0.01 | 0.01 | 40 | 996.2 |
| 20260505001038 | 74 | 326 | 5.0 | 12.0 | 0.00 | 0.01 | 0.01 | 39 | 996.2 |
| 20260505000540 | 75 | 321 | 2.0 | 15.0 | 0.00 | 0.01 | 0.01 | 40 | 996.0 |
| 20260504235540 | 75 | 257 | 6.0 | 23.0 | 0.00 | 0.01 | 0.01 | 39 | 995.9 |
| 20260504235040 | 76 | 334 | 4.0 | 12.0 | 0.00 | 0.01 | 0.01 | 39 | 996.1 |
| 20260504234603 | 76 | 298 | 4.0 | 12.0 | 0.00 | 0.01 | 0.01 | 40 | 996.1 |
| 20260504234041 | 76 | 315 | 4.0 | 12.0 | 0.00 | 0.01 | 0.01 | 38 | 996.1 |
| 20260504233540 | 76 | 284 | 4.0 | 11.0 | 0.00 | 0.01 | 0.01 | 39 | 995.9 |
| 20260504233050 | 76 | 300 | 3.0 | 11.0 | 0.00 | 0.01 | 0.01 | 41 | 995.9 |
| 20260504232540 | 76 | 306 | 3.0 | 11.0 | 0.00 | 0.01 | 0.01 | 41 | 995.9 |
| 20260504232041 | 76 | 308 | 3.0 | 9.0 | 0.00 | 0.01 | 0.01 | 41 | 996.0 |
| 20260504231550 | 76 | 313 | 3.0 | 9.0 | 0.00 | 0.01 | 0.01 | 43 | 996.0 |
| 20260504231039 | 75 | 317 | 1.0 | 6.0 | 0.01 | 0.01 | 0.01 | 43 | 996.1 |
| 20260504230537 | 75 | 275 | 2.0 | 10.0 | 0.01 | 0.01 | 0.01 | 44 | 996.0 |
| 20260504230047 | 75 | 234 | 1.0 | 10.0 | 0.01 | 0.01 | 0.01 | 43 | 996.1 |
| 20260504225541 | 75 | 266 | 2.0 | 10.0 | 0.01 | 0.01 | 0.01 | 42 | 996.0 |
| 20260504225038 | 75 | 240 | 3.0 | 13.0 | 0.01 | 0.01 | 0.01 | 43 | 996.1 |
| 20260504224554 | 75 | 242 | 4.0 | 13.0 | 0.01 | 0.01 | 0.01 | 44 | 996.2 |
| 20260504224042 | 74 | 303 | 3.0 | 14.0 | 0.01 | 0.01 | 0.01 | 44 | 996.2 |
| 20260504223542 | 74 | 254 | 4.0 | 14.0 | 0.01 | 0.01 | 0.01 | 44 | 996.2 |
| 20260504223044 | 74 | 296 | 4.0 | 24.0 | 0.01 | 0.01 | 0.01 | 44 | 996.3 |
| 20260504222540 | 73 | 247 | 7.0 | 30.0 | 0.01 | 0.01 | 0.01 | 43 | 996.4 |
| 20260504222039 | 72 | 240 | 15.0 | 30.0 | 0.01 | 0.01 | 0.01 | 44 | 996.5 |
| 20260504221551 | 72 | 301 | 8.0 | 21.0 | 0.01 | 0.01 | 0.01 | 46 | 996.8 |
| 20260504221040 | 75 | 306 | 5.0 | 21.0 | 0.00 | 0.00 | 0.00 | 44 | 997.0 |
| 20260504220540 | 77 | 262 | 6.0 | 19.0 | 0.00 | 0.00 | 0.00 | 36 | 997.1 |
| 20260504220057 | 78 | 244 | 7.0 | 21.0 | 0.00 | 0.00 | 0.00 | 34 | 996.3 |
| 20260504215540 | 78 | 234 | 10.0 | 21.0 | 0.00 | 0.00 | 0.00 | 34 | 996.5 |
| 20260504215044 | 79 | 235 | 7.0 | 23.0 | 0.00 | 0.00 | 0.00 | 33 | 996.4 |
| 20260504214544 | 79 | 291 | 5.0 | 23.0 | 0.00 | 0.00 | 0.00 | 35 | 996.3 |
| 20260504214040 | 79 | 270 | 9.0 | 22.0 | 0.00 | 0.00 | 0.00 | 34 | 996.3 |
| 20260504213539 | 80 | 214 | 6.0 | 22.0 | 0.00 | 0.00 | 0.00 | 34 | 996.5 |
| 20260504213106 | 79 | 238 | 7.0 | 25.0 | 0.00 | 0.00 | 0.00 | 34 | 996.4 |
| 20260504212540 | 79 | 229 | 9.0 | 25.0 | 0.00 | 0.00 | 0.00 | 34 | 996.4 |
| 20260504212043 | 80 | 266 | 10.0 | 22.0 | 0.00 | 0.00 | 0.00 | 33 | 996.4 |
| 20260504211545 | 80 | 255 | 11.0 | 24.0 | 0.00 | 0.00 | 0.00 | 33 | 996.6 |
| 20260504211039 | 80 | 300 | 10.0 | 24.0 | 0.00 | 0.00 | 0.00 | 33 | 996.5 |
| 20260504210542 | 80 | 247 | 9.0 | 18.0 | 0.00 | 0.00 | 0.00 | 33 | 996.6 |
| 20260504210045 | 80 | 253 | 5.0 | 14.0 | 0.00 | 0.00 | 0.00 | 33 | 996.5 |
| 20260504205540 | 80 | 260 | 4.0 | 14.0 | 0.00 | 0.00 | 0.00 | 33 | 996.5 |
| 20260504205040 | 80 | 275 | 5.0 | 18.0 | 0.00 | 0.00 | 0.00 | 32 | 996.7 |
| 20260504204555 | 80 | 255 | 4.0 | 25.0 | 0.00 | 0.00 | 0.00 | 34 | 996.8 |
| 20260504204040 | 80 | 288 | 12.0 | 25.0 | 0.00 | 0.00 | 0.00 | 32 | 996.9 |
| 20260504203540 | 79 | 250 | 5.0 | 20.0 | 0.00 | 0.00 | 0.00 | 33 | 996.9 |
| 20260504203051 | 79 | 259 | 8.0 | 20.0 | 0.00 | 0.00 | 0.00 | 32 | 997.0 |
| 20260504202540 | 79 | 234 | 6.0 | 17.0 | 0.00 | 0.00 | 0.00 | 34 | 997.1 |
| 20260504202040 | 79 | 316 | 3.0 | 21.0 | 0.00 | 0.00 | 0.00 | 34 | 997.1 |
| 20260504201547 | 79 | 246 | 7.0 | 23.0 | 0.00 | 0.00 | 0.00 | 31 | 997.1 |
| 20260504201039 | 80 | 228 | 5.0 | 23.0 | 0.00 | 0.00 | 0.00 | 32 | 997.3 |
| 20260504200539 | 79 | 227 | 10.0 | 21.0 | 0.00 | 0.00 | 0.00 | 32 | 997.3 |
| 20260504200045 | 79 | 210 | 6.0 | 19.0 | 0.00 | 0.00 | 0.00 | 32 | 997.2 |
| 20260504195540 | 79 | 273 | 6.0 | 19.0 | 0.00 | 0.00 | 0.00 | 31 | 997.4 |
| 20260504195040 | 79 | 288 | 4.0 | 17.0 | 0.00 | 0.00 | 0.00 | 34 | 997.4 |
| 20260504194545 | 79 | 243 | 4.0 | 17.0 | 0.00 | 0.00 | 0.00 | 33 | 997.5 |
| 20260504194040 | 79 | 266 | 7.0 | 17.0 | 0.00 | 0.00 | 0.00 | 32 | 997.4 |
| 20260504193540 | 79 | 234 | 6.0 | 23.0 | 0.00 | 0.00 | 0.00 | 32 | 997.5 |
| 20260504193058 | 79 | 223 | 10.0 | 23.0 | 0.00 | 0.00 | 0.00 | 32 | 997.5 |
| 20260504192537 | 79 | 262 | 8.0 | 25.0 | 0.00 | 0.00 | 0.00 | 35 | 997.5 |
| 20260504192042 | 78 | 221 | 10.0 | 25.0 | 0.00 | 0.00 | 0.00 | 33 | 997.7 |
| 20260504191550 | 78 | 212 | 8.0 | 21.0 | 0.00 | 0.00 | 0.00 | 33 | 997.6 |
| 20260504191040 | 78 | 246 | 10.0 | 25.0 | 0.00 | 0.00 | 0.00 | 33 | 997.7 |
| 20260504190540 | 78 | 265 | 8.0 | 25.0 | 0.00 | 0.00 | 0.00 | 32 | 997.8 |
| 20260504190053 | 78 | 215 | 10.0 | 25.0 | 0.00 | 0.00 | 0.00 | 32 | 997.8 |
| 20260504185540 | 78 | 251 | 6.0 | 17.0 | 0.00 | 0.00 | 0.00 | 33 | 997.9 |
| 20260504185038 | 77 | 236 | 8.0 | 20.0 | 0.00 | 0.00 | 0.00 | 33 | 997.9 |
| 20260504184549 | 77 | 235 | 9.0 | 20.0 | 0.00 | 0.00 | 0.00 | 32 | 997.9 |
| 20260504184042 | 78 | 227 | 9.0 | 20.0 | 0.00 | 0.00 | 0.00 | 32 | 997.9 |
| 20260504183540 | 78 | 241 | 8.0 | 24.0 | 0.00 | 0.00 | 0.00 | 32 | 997.9 |
| 20260504183104 | 77 | 331 | 8.0 | 24.0 | 0.00 | 0.00 | 0.00 | 34 | 997.9 |
| 20260504182540 | 77 | 229 | 12.0 | 25.0 | 0.00 | 0.00 | 0.00 | 32 | 997.9 |
| 20260504182040 | 77 | 281 | 8.0 | 25.0 | 0.00 | 0.00 | 0.00 | 33 | 998.1 |
| 20260504181546 | 77 | 271 | 10.0 | 25.0 | 0.00 | 0.00 | 0.00 | 32 | 998.1 |
| 20260504181041 | 77 | 261 | 12.0 | 23.0 | 0.00 | 0.00 | 0.00 | 31 | 998.1 |
| 20260504180541 | 76 | 225 | 9.0 | 22.0 | 0.00 | 0.00 | 0.00 | 32 | 998.1 |
| 20260504180112 | 76 | 182 | 11.0 | 23.0 | 0.00 | 0.00 | 0.00 | 33 | 998.0 |
| 20260504175544 | 76 | 190 | 11.0 | 24.0 | 0.00 | 0.00 | 0.00 | 33 | 998.0 |
| 20260504175040 | 76 | 340 | 11.0 | 24.0 | 0.00 | 0.00 | 0.00 | 33 | 998.0 |
| 20260504174547 | 76 | 231 | 9.0 | 21.0 | 0.00 | 0.00 | 0.00 | 35 | 998.0 |
| 20260504174040 | 76 | 234 | 7.0 | 21.0 | 0.00 | 0.00 | 0.00 | 34 | 998.1 |
| 20260504173539 | 76 | 220 | 7.0 | 18.0 | 0.00 | 0.00 | 0.00 | 36 | 998.2 |